This demonstration page uses our WeatherBlox Daily Observations layout. Learn more.

38.88101, -77.10428

Hourly Observations for June 8, 2016

Temp ( °F °C ) Dew Point ( °F °C ) Humidity (%) Winds ( mph kmh ) Pressure ( in mb ) Visibility ( mi km ) Precip ( " mm )
12:52 am 00:52 Clear 68 20 50 10 53 53 NW 10 17 29.72 1006 10 16.0934 0 0
1:52 am 01:52 Clear 66 18.9 50 10 56 56 NW 12 19 29.73 1007 10 16.0934 0 0
2:52 am 02:52 Clear 66 18.9 50 10 56 56 WNW 10 17 29.73 1007 10 16.0934 0 0
3:52 am 03:52 Clear 64 17.8 51 10.6 63 63 WNW 6 9 29.73 1007 10 16.0934 0 0
4:52 am 04:52 Mostly Clear 65 18.3 50 10 59 59 W 6 9 29.73 1007 10 16.0934 0 0
5:52 am 05:52 Mostly Sunny 64 17.8 50 10 60 60 W 9 15 29.74 1007 10 16.0934 0 0
6:52 am 06:52 Mostly Sunny 66 18.9 50 10 56 56 W 9 15 29.74 1007 10 16.0934 0 0
7:52 am 07:52 Mostly Cloudy 68 20 51 10.6 55 55 W 10 17 29.75 1007 10 16.0934 0 0
8:52 am 08:52 Mostly Cloudy 69 20.6 51 10.6 53 53 W 13 20 29.75 1007 10 16.0934 0 0
9:52 am 09:52 Partly Cloudy 72 22.2 50 10 46 46 W 20 31 29.73 1007 10 16.0934 0 0
10:52 am 10:52 Partly Cloudy 73 22.8 44 6.7 35 35 W 18 30 29.72 1007 10 16.0934 0 0
11:20 am 11:20 Mostly Cloudy 72 22 43 6 36 36 WNW 22 35 29.74 1007 10 16.0934 0 0
11:52 am 11:52 Partly Cloudy 68 20 49 9.4 51 51 NW 21 33 29.78 1008 10 16.0934 0 0
12:52 pm 12:52 Partly Cloudy 71 21.7 43 6.1 36 36 WNW 23 37 29.78 1009 10 16.0934 0 0
1:52 pm 13:52 Partly Cloudy 71 21.7 39 3.9 31 31 WNW 23 37 29.79 1009 10 16.0934 0 0
2:52 pm 14:52 Partly Cloudy 72 22.2 40 4.4 31 31 NNW 22 35 29.8 1009 10 16.0934 0 0
3:52 pm 15:52 Mostly Sunny 71 21.7 39 3.9 31 31 NW 15 24 29.82 1010 10 16.0934 0 0
4:52 pm 16:52 Partly Cloudy 72 22.2 38 3.3 29 29 NNW 23 37 29.83 1010 10 16.0934 0 0
5:52 pm 17:52 Mostly Sunny 72 22.2 39 3.9 30 30 NW 17 28 29.84 1011 10 16.0934 0 0
6:52 pm 18:52 Mostly Sunny 70 21.1 39 3.9 32 32 NNW 20 31 29.85 1011 10 16.0934 0 0
7:52 pm 19:52 Mostly Sunny 69 20.6 39 3.9 33 33 NNW 14 22 29.88 1012 10 16.0934 0 0
8:52 pm 20:52 Mostly Clear 67 19.4 39 3.9 36 36 NW 16 26 29.9 1012 10 16.0934 0 0
9:52 pm 21:52 Clear 66 18.9 40 4.4 39 39 NW 7 11 29.91 1013 10 16.0934 0 0
10:52 pm 22:52 Clear 65 18.3 41 5 42 42 NW 8 13 29.93 1014 10 16.0934 0 0
11:52 pm 23:52 Clear 63 17.2 41 5 45 45 W 8 13 29.94 1014 10 16.0934 0 0

Powered by AerisWeather